| time (UTC) | temp F | wind direction | speed MPH | gust MPH | rain 1hr in | rain 24hr in | rain mn in | humidity % | barometer mb |
| 20260904212031 | 86 | 323 | 6.0 | 11.0 | 0.00 | 0.00 | 0.00 | 46 | 1010.2 |
| 20260904211531 | 86 | 327 | 1.0 | 10.0 | 0.00 | 0.00 | 0.00 | 47 | 1010.2 |
| 20260904211031 | 86 | 271 | 2.0 | 7.0 | 0.00 | 0.00 | 0.00 | 49 | 1010.3 |
| 20260904210530 | 86 | 252 | 2.0 | 7.0 | 0.00 | 0.00 | 0.00 | 50 | 1010.3 |
| 20260904210030 | 86 | 347 | 1.0 | 5.0 | 0.00 | 0.00 | 0.00 | 49 | 1010.3 |
| 20260904205529 | 86 | 346 | 2.0 | 10.0 | 0.00 | 0.00 | 0.00 | 51 | 1010.5 |
| 20260904205030 | 86 | 340 | 3.0 | 10.0 | 0.00 | 0.00 | 0.00 | 47 | 1010.6 |
| 20260904204530 | 86 | 9 | 4.0 | 10.0 | 0.00 | 0.00 | 0.00 | 46 | 1010.6 |
| 20260904204027 | 86 | 319 | 2.0 | 10.0 | 0.00 | 0.00 | 0.00 | 47 | 1010.6 |
| 20260904203526 | 86 | 331 | 2.0 | 8.0 | 0.00 | 0.00 | 0.00 | 48 | 1010.5 |
| 20260904203029 | 86 | 332 | 1.0 | 8.0 | 0.00 | 0.00 | 0.00 | 49 | 1010.5 |
| 20260904202523 | 86 | 345 | 0.0 | 6.0 | 0.00 | 0.00 | 0.00 | 50 | 1010.5 |
| 20260904202023 | 86 | 342 | 3.0 | 6.0 | 0.00 | 0.00 | 0.00 | 48 | 1010.5 |
| 20260904201536 | 85 | 51 | 0.0 | 3.0 | 0.00 | 0.00 | 0.00 | 54 | 1010.5 |
| 20260904201026 | 85 | 74 | 0.0 | 3.0 | 0.00 | 0.00 | 0.00 | 55 | 1010.6 |
| 20260904200527 | 85 | 75 | 0.0 | 2.0 | 0.00 | 0.00 | 0.00 | 54 | 1010.6 |
| 20260904200039 | 85 | 75 | 0.0 | 3.0 | 0.00 | 0.00 | 0.00 | 55 | 1010.5 |
| 20260904195526 | 85 | 75 | 1.0 | 5.0 | 0.00 | 0.00 | 0.00 | 53 | 1010.5 |
| 20260904195021 | 85 | 76 | 1.0 | 5.0 | 0.00 | 0.00 | 0.00 | 54 | 1010.7 |
| 20260904194521 | 86 | 70 | 2.0 | 5.0 | 0.00 | 0.00 | 0.00 | 53 | 1010.6 |
| 20260904194020 | 86 | 84 | 3.0 | 6.0 | 0.00 | 0.00 | 0.00 | 53 | 1010.7 |
| 20260904193520 | 86 | 355 | 1.0 | 4.0 | 0.00 | 0.00 | 0.00 | 50 | 1010.8 |
| 20260904193020 | 85 | 331 | 0.0 | 3.0 | 0.00 | 0.00 | 0.00 | 51 | 1010.6 |
| 20260904192521 | 85 | 331 | 1.0 | 3.0 | 0.00 | 0.00 | 0.00 | 52 | 1010.7 |
| 20260904192017 | 85 | 333 | 1.0 | 5.0 | 0.00 | 0.00 | 0.00 | 54 | 1010.8 |
| 20260904191517 | 85 | 336 | 3.0 | 5.0 | 0.00 | 0.00 | 0.00 | 50 | 1010.9 |
| 20260904191017 | 85 | 343 | 1.0 | 4.0 | 0.00 | 0.00 | 0.00 | 55 | 1010.9 |
| 20260904190515 | 84 | 166 | 2.0 | 5.0 | 0.00 | 0.00 | 0.00 | 59 | 1010.8 |
| 20260904190015 | 84 | 59 | 1.0 | 3.0 | 0.00 | 0.00 | 0.00 | 59 | 1010.9 |
| 20260904185514 | 84 | 59 | 1.0 | 3.0 | 0.00 | 0.00 | 0.00 | 58 | 1010.9 |
| 20260904185016 | 84 | 59 | 0.0 | 0.0 | 0.00 | 0.00 | 0.00 | 59 | 1010.9 |
| 20260904184514 | 84 | 59 | 0.0 | 3.0 | 0.00 | 0.00 | 0.00 | 53 | 1011.0 |
| 20260904184019 | 84 | 59 | 0.0 | 3.0 | 0.00 | 0.00 | 0.00 | 52 | 1011.2 |
| 20260904183514 | 85 | 78 | 0.0 | 2.0 | 0.00 | 0.00 | 0.00 | 57 | 1011.2 |
| 20260904183015 | 85 | 78 | 0.0 | 3.0 | 0.00 | 0.00 | 0.00 | 53 | 1011.2 |
| 20260904182514 | 85 | 79 | 0.0 | 4.0 | 0.00 | 0.00 | 0.00 | 55 | 1011.2 |
| 20260904182016 | 85 | 79 | 0.0 | 9.0 | 0.00 | 0.00 | 0.00 | 54 | 1011.2 |
| 20260904181512 | 85 | 334 | 4.0 | 9.0 | 0.00 | 0.00 | 0.00 | 50 | 1011.3 |
| 20260904181013 | 85 | 355 | 3.0 | 10.0 | 0.00 | 0.00 | 0.00 | 52 | 1011.4 |
| 20260904180511 | 85 | 315 | 2.0 | 10.0 | 0.00 | 0.00 | 0.00 | 51 | 1011.4 |
| 20260904180008 | 85 | 347 | 3.0 | 8.0 | 0.00 | 0.00 | 0.00 | 51 | 1011.3 |
| 20260904175508 | 84 | 344 | 1.0 | 9.0 | 0.00 | 0.00 | 0.00 | 51 | 1011.3 |
| 20260904175005 | 84 | 301 | 2.0 | 8.0 | 0.00 | 0.00 | 0.00 | 53 | 1011.3 |
| 20260904174505 | 84 | 300 | 2.0 | 5.0 | 0.00 | 0.00 | 0.00 | 52 | 1011.3 |
| 20260904174004 | 84 | 314 | 3.0 | 6.0 | 0.00 | 0.00 | 0.00 | 51 | 1011.3 |
| 20260904173503 | 84 | 259 | 2.0 | 10.0 | 0.00 | 0.00 | 0.00 | 52 | 1011.3 |
| 20260904173003 | 84 | 330 | 4.0 | 10.0 | 0.00 | 0.00 | 0.00 | 50 | 1011.2 |
| 20260904172503 | 84 | 267 | 4.0 | 8.0 | 0.00 | 0.00 | 0.00 | 51 | 1011.3 |
| 20260904172002 | 84 | 350 | 3.0 | 8.0 | 0.00 | 0.00 | 0.00 | 52 | 1011.3 |
| 20260904171502 | 84 | 343 | 3.0 | 8.0 | 0.00 | 0.00 | 0.00 | 53 | 1011.3 |
| 20260904171101 | 83 | 324 | 2.0 | 8.0 | 0.00 | 0.00 | 0.00 | 56 | 1011.3 |
| 20260904170559 | 83 | 336 | 1.0 | 9.0 | 0.00 | 0.00 | 0.00 | 55 | 1011.3 |
| 20260904170058 | 83 | 325 | 5.0 | 9.0 | 0.00 | 0.00 | 0.00 | 53 | 1011.2 |
| 20260904165557 | 83 | 9 | 1.0 | 5.0 | 0.00 | 0.00 | 0.00 | 58 | 1011.1 |
| 20260904165057 | 82 | 21 | 2.0 | 9.0 | 0.00 | 0.00 | 0.00 | 56 | 1011.3 |
| 20260904164558 | 82 | 321 | 3.0 | 9.0 | 0.00 | 0.00 | 0.00 | 55 | 1011.4 |
| 20260904164056 | 82 | 319 | 3.0 | 10.0 | 0.00 | 0.00 | 0.00 | 54 | 1011.4 |
| 20260904163554 | 82 | 349 | 3.0 | 10.0 | 0.00 | 0.00 | 0.00 | 56 | 1011.4 |
| 20260904163058 | 82 | 333 | 4.0 | 10.0 | 0.00 | 0.00 | 0.00 | 55 | 1011.5 |
| 20260904162553 | 82 | 321 | 3.0 | 9.0 | 0.00 | 0.00 | 0.00 | 57 | 1011.4 |
| 20260904162053 | 82 | 335 | 2.0 | 11.0 | 0.00 | 0.00 | 0.00 | 57 | 1011.5 |
| 20260904161558 | 82 | 336 | 4.0 | 10.0 | 0.00 | 0.00 | 0.00 | 56 | 1011.7 |
| 20260904161050 | 81 | 42 | 2.0 | 13.0 | 0.00 | 0.00 | 0.00 | 58 | 1011.8 |
| 20260904160549 | 81 | 336 | 4.0 | 13.0 | 0.00 | 0.00 | 0.00 | 58 | 1011.8 |
| 20260904160055 | 81 | 325 | 4.0 | 8.0 | 0.00 | 0.00 | 0.00 | 58 | 1011.8 |
| 20260904155550 | 81 | 319 | 3.0 | 9.0 | 0.00 | 0.00 | 0.00 | 60 | 1011.8 |
| 20260904155049 | 80 | 348 | 3.0 | 9.0 | 0.00 | 0.00 | 0.00 | 61 | 1011.7 |
| 20260904154546 | 80 | 311 | 3.0 | 8.0 | 0.00 | 0.00 | 0.00 | 61 | 1011.6 |
| 20260904154045 | 79 | 86 | 3.0 | 8.0 | 0.00 | 0.00 | 0.00 | 64 | 1011.9 |
| 20260904153542 | 79 | 331 | 1.0 | 8.0 | 0.00 | 0.00 | 0.00 | 63 | 1012.0 |
| 20260904153103 | 79 | 334 | 3.0 | 10.0 | 0.00 | 0.00 | 0.00 | 63 | 1012.0 |
| 20260904152540 | 78 | 331 | 5.0 | 10.0 | 0.00 | 0.00 | 0.00 | 64 | 1012.1 |
| 20260904152040 | 78 | 311 | 5.0 | 10.0 | 0.00 | 0.00 | 0.00 | 65 | 1012.2 |
| 20260904151540 | 78 | 336 | 2.0 | 10.0 | 0.00 | 0.00 | 0.00 | 66 | 1012.2 |
| 20260904151037 | 78 | 329 | 3.0 | 11.0 | 0.00 | 0.00 | 0.00 | 69 | 1012.1 |
| 20260904150536 | 77 | 313 | 6.0 | 11.0 | 0.00 | 0.00 | 0.00 | 68 | 1012.2 |
| 20260904150037 | 76 | 338 | 4.0 | 13.0 | 0.00 | 0.00 | 0.00 | 72 | 1012.4 |
| 20260904145533 | 76 | 289 | 5.0 | 13.0 | 0.00 | 0.00 | 0.00 | 74 | 1012.4 |
| 20260904145032 | 75 | 265 | 6.0 | 10.0 | 0.00 | 0.00 | 0.00 | 81 | 1012.4 |
| 20260904144530 | 74 | 360 | 2.0 | 8.0 | 0.00 | 0.00 | 0.00 | 88 | 1012.3 |
| 20260904144028 | 73 | 326 | 3.0 | 6.0 | 0.00 | 0.00 | 0.00 | 91 | 1012.5 |
| 20260904143527 | 73 | 334 | 4.0 | 6.0 | 0.00 | 0.00 | 0.00 | 94 | 1012.5 |
| 20260904143026 | 73 | 35 | 1.0 | 3.0 | 0.00 | 0.00 | 0.00 | 95 | 1012.5 |
| 20260904142524 | 72 | 66 | 1.0 | 2.0 | 0.00 | 0.00 | 0.00 | 95 | 1012.6 |
| 20260904142022 | 72 | 66 | 0.0 | 3.0 | 0.00 | 0.00 | 0.00 | 96 | 1012.4 |
| 20260904141521 | 71 | 66 | 2.0 | 3.0 | 0.00 | 0.00 | 0.00 | 95 | 1012.4 |
| 20260904141021 | 71 | 94 | 1.0 | 3.0 | 0.00 | 0.00 | 0.00 | 96 | 1012.4 |
| 20260904140524 | 71 | 94 | 1.0 | 3.0 | 0.00 | 0.00 | 0.00 | 95 | 1012.4 |
| 20260904140021 | 70 | 95 | 0.0 | 2.0 | 0.00 | 0.00 | 0.00 | 96 | 1012.4 |
| 20260904135521 | 70 | 95 | 0.0 | 2.0 | 0.00 | 0.00 | 0.00 | 95 | 1012.5 |
| 20260904135021 | 70 | 95 | 0.0 | 3.0 | 0.00 | 0.00 | 0.00 | 95 | 1012.4 |
| 20260904134523 | 70 | 95 | 0.0 | 3.0 | 0.00 | 0.00 | 0.00 | 95 | 1012.3 |
| 20260904134020 | 70 | 95 | 0.0 | 6.0 | 0.00 | 0.00 | 0.00 | 95 | 1012.3 |
| 20260904133520 | 70 | 95 | 1.0 | 6.0 | 0.00 | 0.00 | 0.00 | 95 | 1012.3 |
| 20260904133022 | 70 | 115 | 2.0 | 4.0 | 0.00 | 0.00 | 0.00 | 95 | 1012.3 |
| 20260904132526 | 70 | 130 | 1.0 | 4.0 | 0.00 | 0.00 | 0.00 | 95 | 1012.4 |
| 20260904132019 | 70 | 173 | 0.0 | 3.0 | 0.00 | 0.00 | 0.00 | 95 | 1012.3 |
| 20260904131519 | 70 | 173 | 1.0 | 3.0 | 0.00 | 0.00 | 0.00 | 95 | 1012.3 |
| 20260904131021 | 70 | 174 | 0.0 | 3.0 | 0.00 | 0.00 | 0.00 | 95 | 1012.4 |
| 20260904130521 | 70 | 174 | 0.0 | 3.0 | 0.00 | 0.00 | 0.00 | 95 | 1012.4 |
| 20260904130018 | 70 | 174 | 0.0 | 3.0 | 0.00 | 0.00 | 0.00 | 95 | 1012.5 |
| 20260904125520 | 70 | 174 | 0.0 | 1.0 | 0.00 | 0.00 | 0.00 | 95 | 1012.4 |
| 20260904125020 | 70 | 174 | 0.0 | 1.0 | 0.00 | 0.00 | 0.00 | 95 | 1012.4 |
| 20260904124518 | 70 | 174 | 0.0 | 3.0 | 0.00 | 0.00 | 0.00 | 95 | 1012.4 |
| 20260904124022 | 70 | 174 | 0.0 | 3.0 | 0.00 | 0.00 | 0.00 | 95 | 1012.3 |
| 20260904123517 | 70 | 174 | 1.0 | 2.0 | 0.00 | 0.00 | 0.00 | 95 | 1012.3 |
| 20260904123017 | 70 | 174 | 1.0 | 2.0 | 0.00 | 0.00 | 0.00 | 95 | 1012.5 |
| 20260904122520 | 69 | 176 | 0.0 | 3.0 | 0.00 | 0.00 | 0.00 | 95 | 1012.3 |
| 20260904122016 | 69 | 176 | 1.0 | 3.0 | 0.00 | 0.00 | 0.00 | 95 | 1012.3 |
| 20260904121516 | 69 | 175 | 1.0 | 3.0 | 0.00 | 0.00 | 0.00 | 95 | 1012.2 |
| 20260904121016 | 69 | 175 | 0.0 | 3.0 | 0.00 | 0.00 | 0.00 | 95 | 1012.1 |
| 20260904120514 | 69 | 175 | 1.0 | 3.0 | 0.00 | 0.00 | 0.00 | 95 | 1012.1 |
| 20260904120016 | 69 | 175 | 0.0 | 3.0 | 0.00 | 0.00 | 0.00 | 95 | 1012.1 |
| 20260904115513 | 68 | 171 | 2.0 | 4.0 | 0.00 | 0.00 | 0.00 | 95 | 1012.0 |
| 20260904115013 | 68 | 171 | 0.0 | 2.0 | 0.00 | 0.00 | 0.00 | 95 | 1011.9 |
| 20260904114513 | 68 | 171 | 0.0 | 2.0 | 0.00 | 0.00 | 0.00 | 95 | 1011.9 |
| 20260904114015 | 68 | 171 | 0.0 | 2.0 | 0.00 | 0.00 | 0.00 | 95 | 1012.1 |
| 20260904113513 | 68 | 171 | 0.0 | 3.0 | 0.00 | 0.00 | 0.00 | 95 | 1011.9 |
| 20260904113012 | 68 | 171 | 1.0 | 3.0 | 0.00 | 0.00 | 0.00 | 94 | 1011.8 |
| 20260904112510 | 68 | 171 | 0.0 | 2.0 | 0.00 | 0.00 | 0.00 | 94 | 1011.8 |
| 20260904112010 | 68 | 171 | 0.0 | 3.0 | 0.00 | 0.00 | 0.00 | 94 | 1011.8 |
| 20260904111512 | 68 | 171 | 1.0 | 3.0 | 0.00 | 0.00 | 0.00 | 94 | 1011.5 |
| 20260904111010 | 68 | 171 | 1.0 | 2.0 | 0.00 | 0.00 | 0.00 | 94 | 1011.5 |
| 20260904110510 | 68 | 171 | 0.0 | 0.0 | 0.00 | 0.00 | 0.00 | 94 | 1011.5 |
| 20260904110009 | 68 | 171 | 0.0 | 0.0 | 0.00 | 0.00 | 0.00 | 94 | 1011.4 |
| 20260904105608 | 68 | 171 | 0.0 | 0.0 | 0.00 | 0.00 | 0.00 | 94 | 1011.6 |
| 20260904105008 | 68 | 171 | 0.0 | 1.0 | 0.00 | 0.00 | 0.00 | 94 | 1011.4 |
| 20260904104507 | 68 | 171 | 0.0 | 2.0 | 0.00 | 0.00 | 0.00 | 94 | 1011.3 |
| 20260904104010 | 68 | 171 | 0.0 | 2.0 | 0.00 | 0.00 | 0.00 | 94 | 1011.3 |
| 20260904103510 | 68 | 171 | 0.0 | 2.0 | 0.00 | 0.00 | 0.00 | 94 | 1011.2 |
| 20260904103006 | 68 | 171 | 0.0 | 1.0 | 0.00 | 0.00 | 0.00 | 94 | 1011.1 |
| 20260904102506 | 68 | 171 | 0.0 | 1.0 | 0.00 | 0.00 | 0.00 | 94 | 1011.1 |
| 20260904102006 | 68 | 171 | 0.0 | 0.0 | 0.00 | 0.00 | 0.00 | 94 | 1011.3 |
| 20260904101515 | 68 | 171 | 0.0 | 0.0 | 0.00 | 0.00 | 0.00 | 94 | 1011.3 |
| 20260904101008 | 68 | 171 | 0.0 | 0.0 | 0.00 | 0.00 | 0.00 | 94 | 1011.4 |
| 20260904100504 | 69 | 171 | 0.0 | 0.0 | 0.00 | 0.00 | 0.00 | 94 | 1011.2 |
| 20260904100003 | 69 | 171 | 0.0 | 0.0 | 0.00 | 0.00 | 0.00 | 94 | 1011.2 |
| 20260904095503 | 69 | 171 | 0.0 | 0.0 | 0.00 | 0.00 | 0.00 | 94 | 1011.1 |
| 20260904095003 | 69 | 171 | 0.0 | 0.0 | 0.00 | 0.00 | 0.00 | 94 | 1011.1 |
| 20260904094502 | 69 | 171 | 0.0 | 0.0 | 0.00 | 0.00 | 0.00 | 94 | 1011.1 |
| 20260904094002 | 69 | 171 | 0.0 | 0.0 | 0.00 | 0.00 | 0.00 | 94 | 1011.0 |
| 20260904093502 | 69 | 171 | 0.0 | 0.0 | 0.00 | 0.00 | 0.00 | 94 | 1011.2 |
| 20260904093003 | 69 | 171 | 0.0 | 0.0 | 0.00 | 0.00 | 0.00 | 94 | 1011.2 |
| 20260904092500 | 69 | 171 | 0.0 | 0.0 | 0.00 | 0.00 | 0.00 | 94 | 1011.2 |
| 20260904092002 | 69 | 171 | 0.0 | 2.0 | 0.00 | 0.00 | 0.00 | 94 | 1011.1 |
| 20260904091600 | 69 | 171 | 1.0 | 2.0 | 0.00 | 0.00 | 0.00 | 94 | 1010.9 |
| 20260904091059 | 69 | 171 | 0.0 | 0.0 | 0.00 | 0.00 | 0.00 | 94 | 1010.9 |
| 20260904090559 | 69 | 171 | 0.0 | 2.0 | 0.00 | 0.00 | 0.00 | 94 | 1011.0 |
| 20260904090059 | 69 | 171 | 1.0 | 2.0 | 0.00 | 0.00 | 0.00 | 94 | 1010.8 |
| 20260904085558 | 70 | 171 | 0.0 | 2.0 | 0.00 | 0.00 | 0.00 | 94 | 1010.7 |
| 20260904085058 | 70 | 171 | 0.0 | 0.0 | 0.00 | 0.00 | 0.00 | 94 | 1010.8 |
| 20260904084601 | 70 | 171 | 0.0 | 0.0 | 0.00 | 0.00 | 0.00 | 94 | 1010.7 |
| 20260904084100 | 70 | 171 | 0.0 | 0.0 | 0.00 | 0.00 | 0.00 | 94 | 1010.6 |
| 20260904083600 | 70 | 171 | 0.0 | 0.0 | 0.00 | 0.00 | 0.00 | 94 | 1010.4 |
| 20260904083056 | 70 | 171 | 0.0 | 0.0 | 0.00 | 0.00 | 0.00 | 94 | 1010.3 |
| 20260904082556 | 70 | 171 | 0.0 | 1.0 | 0.00 | 0.00 | 0.00 | 94 | 1010.3 |
| 20260904082056 | 70 | 171 | 0.0 | 1.0 | 0.00 | 0.00 | 0.00 | 94 | 1010.3 |
| 20260904081556 | 70 | 171 | 0.0 | 2.0 | 0.00 | 0.00 | 0.00 | 94 | 1010.3 |
| 20260904081055 | 70 | 171 | 1.0 | 3.0 | 0.00 | 0.00 | 0.00 | 94 | 1010.3 |
| 20260904080600 | 70 | 171 | 0.0 | 3.0 | 0.00 | 0.00 | 0.00 | 94 | 1010.2 |
| 20260904080115 | 70 | 171 | 1.0 | 3.0 | 0.00 | 0.00 | 0.00 | 94 | 1010.0 |
| 20260904075557 | 70 | 171 | 0.0 | 3.0 | 0.00 | 0.00 | 0.00 | 94 | 1010.2 |
| 20260904075053 | 70 | 171 | 0.0 | 2.0 | 0.00 | 0.00 | 0.00 | 94 | 1010.3 |
| 20260904074554 | 70 | 171 | 0.0 | 2.0 | 0.00 | 0.00 | 0.00 | 94 | 1010.2 |
| 20260904074057 | 71 | 171 | 0.0 | 2.0 | 0.00 | 0.00 | 0.00 | 94 | 1010.1 |
| 20260904073554 | 71 | 171 | 0.0 | 2.0 | 0.00 | 0.00 | 0.00 | 94 | 1010.1 |
| 20260904073052 | 71 | 171 | 0.0 | 2.0 | 0.00 | 0.00 | 0.00 | 93 | 1010.3 |
| 20260904072551 | 71 | 171 | 1.0 | 2.0 | 0.00 | 0.00 | 0.00 | 93 | 1010.3 |
| 20260904072054 | 71 | 171 | 0.0 | 2.0 | 0.00 | 0.00 | 0.00 | 93 | 1010.3 |
| 20260904071550 | 71 | 171 | 0.0 | 2.0 | 0.00 | 0.00 | 0.00 | 93 | 1010.4 |
| 20260904071050 | 71 | 171 | 0.0 | 2.0 | 0.00 | 0.00 | 0.00 | 93 | 1010.6 |
| 20260904070550 | 71 | 171 | 0.0 | 1.0 | 0.00 | 0.00 | 0.00 | 93 | 1010.6 |
| 20260904070055 | 71 | 171 | 0.0 | 0.0 | 0.00 | 0.00 | 0.00 | 93 | 1010.8 |
| 20260904065548 | 71 | 171 | 0.0 | 4.0 | 0.00 | 0.00 | 0.00 | 93 | 1010.8 |
| 20260904065046 | 71 | 171 | 2.0 | 5.0 | 0.00 | 0.00 | 0.00 | 93 | 1011.0 |
| 20260904064547 | 71 | 171 | 2.0 | 6.0 | 0.00 | 0.00 | 0.00 | 93 | 1011.3 |
| 20260904064046 | 71 | 171 | 1.0 | 2.0 | 0.00 | 0.00 | 0.00 | 93 | 1011.4 |
| 20260904063546 | 71 | 171 | 0.0 | 0.0 | 0.00 | 0.00 | 0.00 | 93 | 1011.4 |
| 20260904063107 | 71 | 171 | 0.0 | 2.0 | 0.00 | 0.00 | 0.00 | 93 | 1011.2 |
| 20260904062545 | 71 | 171 | 0.0 | 2.0 | 0.00 | 0.00 | 0.00 | 93 | 1011.1 |
| 20260904062047 | 71 | 171 | 0.0 | 1.0 | 0.00 | 0.00 | 0.00 | 93 | 1011.2 |
| 20260904061545 | 71 | 171 | 0.0 | 0.0 | 0.00 | 0.00 | 0.00 | 93 | 1011.2 |
| 20260904061049 | 71 | 171 | 0.0 | 0.0 | 0.00 | 0.00 | 0.00 | 93 | 1011.2 |
| 20260904060544 | 71 | 171 | 0.0 | 0.0 | 0.00 | 0.00 | 0.00 | 93 | 1011.2 |
| 20260904060049 | 71 | 171 | 0.0 | 0.0 | 0.00 | 0.00 | 0.00 | 93 | 1011.3 |
| 20260904055542 | 71 | 171 | 0.0 | 0.0 | 0.00 | 0.00 | 0.00 | 93 | 1011.2 |
| 20260904055042 | 71 | 171 | 0.0 | 0.0 | 0.00 | 0.00 | 0.00 | 93 | 1011.3 |
| 20260904054547 | 71 | 171 | 0.0 | 0.0 | 0.00 | 0.00 | 0.00 | 93 | 1011.3 |
| 20260904054045 | 71 | 171 | 0.0 | 0.0 | 0.00 | 0.00 | 0.00 | 93 | 1011.2 |
| 20260904053541 | 71 | 171 | 0.0 | 0.0 | 0.00 | 0.00 | 0.00 | 92 | 1011.2 |
| 20260904053054 | 71 | 171 | 0.0 | 0.0 | 0.00 | 0.00 | 0.00 | 92 | 1011.3 |
| 20260904052541 | 71 | 171 | 0.0 | 0.0 | 0.00 | 0.00 | 0.00 | 92 | 1011.4 |
| 20260904052043 | 71 | 171 | 0.0 | 0.0 | 0.00 | 0.00 | 0.00 | 92 | 1011.3 |
| 20260904051541 | 71 | 171 | 0.0 | 0.0 | 0.00 | 0.00 | 0.00 | 92 | 1011.3 |
| 20260904051040 | 72 | 171 | 0.0 | 0.0 | 0.00 | 0.00 | 0.00 | 92 | 1011.3 |
| 20260904050540 | 71 | 171 | 0.0 | 0.0 | 0.00 | 0.00 | 0.00 | 92 | 1011.3 |
| 20260904050039 | 72 | 171 | 0.0 | 0.0 | 0.00 | 0.00 | 0.00 | 92 | 1011.3 |
| 20260904045539 | 72 | 171 | 0.0 | 2.0 | 0.00 | 0.00 | 0.00 | 92 | 1011.4 |
| 20260904045039 | 72 | 171 | 0.0 | 2.0 | 0.00 | 0.00 | 0.00 | 92 | 1011.4 |
| 20260904044540 | 72 | 171 | 0.0 | 2.0 | 0.00 | 0.00 | 0.00 | 92 | 1011.6 |
| 20260904044038 | 72 | 171 | 0.0 | 2.0 | 0.00 | 0.00 | 0.00 | 92 | 1011.6 |
| 20260904043538 | 72 | 171 | 0.0 | 0.0 | 0.00 | 0.00 | 0.00 | 92 | 1011.6 |
| 20260904043049 | 72 | 171 | 0.0 | 1.0 | 0.00 | 0.00 | 0.00 | 92 | 1011.5 |
| 20260904042536 | 72 | 171 | 0.0 | 1.0 | 0.00 | 0.00 | 0.00 | 92 | 1011.5 |
| 20260904042039 | 72 | 171 | 0.0 | 0.0 | 0.00 | 0.00 | 0.00 | 92 | 1011.6 |
| 20260904041535 | 72 | 171 | 0.0 | 0.0 | 0.00 | 0.00 | 0.00 | 92 | 1011.8 |
| 20260904041035 | 72 | 171 | 0.0 | 0.0 | 0.00 | 0.00 | 0.00 | 92 | 1011.7 |
| 20260904040534 | 72 | 171 | 0.0 | 0.0 | 0.00 | 0.00 | 0.00 | 92 | 1011.6 |
| 20260904040032 | 72 | 171 | 0.0 | 0.0 | 0.00 | 0.00 | 0.00 | 92 | 1011.6 |
| 20260904035532 | 72 | 171 | 0.0 | 0.0 | 0.00 | 0.00 | 0.00 | 92 | 1011.7 |
| 20260904035131 | 72 | 171 | 0.0 | 0.0 | 0.00 | 0.00 | 0.00 | 92 | 1011.7 |
| 20260904034531 | 72 | 171 | 0.0 | 0.0 | 0.00 | 0.00 | 0.00 | 92 | 1011.8 |
| 20260904034032 | 72 | 171 | 0.0 | 0.0 | 0.00 | 0.00 | 0.00 | 92 | 1012.0 |
| 20260904033534 | 72 | 171 | 0.0 | 0.0 | 0.00 | 0.00 | 0.00 | 91 | 1011.9 |
| 20260904033033 | 72 | 171 | 0.0 | 0.0 | 0.00 | 0.00 | 0.00 | 91 | 1011.8 |
| 20260904032531 | 73 | 171 | 0.0 | 2.0 | 0.00 | 0.00 | 0.00 | 91 | 1011.9 |
| 20260904032031 | 73 | 171 | 0.0 | 3.0 | 0.00 | 0.00 | 0.00 | 91 | 1012.0 |
| 20260904031531 | 73 | 171 | 1.0 | 4.0 | 0.00 | 0.00 | 0.00 | 91 | 1011.9 |
| 20260904031031 | 73 | 171 | 3.0 | 4.0 | 0.00 | 0.00 | 0.00 | 91 | 1011.9 |
| 20260904030531 | 73 | 190 | 1.0 | 3.0 | 0.00 | 0.00 | 0.00 | 90 | 1012.0 |
| 20260904030041 | 73 | 190 | 0.0 | 3.0 | 0.00 | 0.00 | 0.00 | 90 | 1012.0 |
| 20260904025530 | 73 | 190 | 0.0 | 3.0 | 0.00 | 0.00 | 0.00 | 90 | 1012.1 |
| 20260904025030 | 73 | 190 | 0.0 | 1.0 | 0.00 | 0.00 | 0.00 | 90 | 1012.2 |
| 20260904024530 | 73 | 190 | 0.0 | 0.0 | 0.00 | 0.00 | 0.00 | 90 | 1012.2 |
| 20260904024031 | 73 | 190 | 0.0 | 0.0 | 0.00 | 0.00 | 0.00 | 90 | 1012.3 |
| 20260904023531 | 73 | 190 | 0.0 | 0.0 | 0.00 | 0.00 | 0.00 | 90 | 1012.5 |
| 20260904023030 | 73 | 190 | 0.0 | 0.0 | 0.00 | 0.00 | 0.00 | 89 | 1012.4 |
| 20260904022529 | 73 | 190 | 0.0 | 0.0 | 0.00 | 0.00 | 0.00 | 89 | 1012.4 |
| 20260904022031 | 74 | 190 | 0.0 | 0.0 | 0.00 | 0.00 | 0.00 | 90 | 1012.3 |
| 20260904021534 | 74 | 190 | 0.0 | 0.0 | 0.00 | 0.00 | 0.00 | 89 | 1012.4 |
| 20260904021028 | 74 | 190 | 0.0 | 0.0 | 0.00 | 0.00 | 0.00 | 89 | 1012.5 |
| 20260904020529 | 74 | 190 | 0.0 | 0.0 | 0.00 | 0.00 | 0.00 | 89 | 1012.5 |
| 20260904020028 | 74 | 190 | 0.0 | 1.0 | 0.00 | 0.00 | 0.00 | 89 | 1012.6 |
| 20260904015532 | 74 | 190 | 0.0 | 2.0 | 0.00 | 0.00 | 0.00 | 89 | 1012.6 |
| 20260904015028 | 74 | 190 | 0.0 | 2.0 | 0.00 | 0.00 | 0.00 | 89 | 1012.6 |
| 20260904014528 | 74 | 190 | 0.0 | 0.0 | 0.00 | 0.00 | 0.00 | 89 | 1012.4 |
| 20260904014031 | 74 | 190 | 0.0 | 0.0 | 0.00 | 0.00 | 0.00 | 89 | 1012.5 |
| 20260904013527 | 75 | 190 | 0.0 | 0.0 | 0.00 | 0.00 | 0.00 | 89 | 1012.5 |
| 20260904013027 | 75 | 190 | 0.0 | 0.0 | 0.00 | 0.00 | 0.00 | 89 | 1012.5 |
| 20260904012527 | 75 | 190 | 0.0 | 0.0 | 0.00 | 0.00 | 0.00 | 88 | 1012.4 |
| 20260904012027 | 75 | 190 | 0.0 | 0.0 | 0.00 | 0.00 | 0.00 | 88 | 1012.4 |
| 20260904011527 | 75 | 190 | 0.0 | 0.0 | 0.00 | 0.00 | 0.00 | 88 | 1012.4 |
| 20260904011026 | 75 | 190 | 0.0 | 0.0 | 0.00 | 0.00 | 0.00 | 88 | 1012.4 |
| 20260904010527 | 75 | 190 | 0.0 | 0.0 | 0.00 | 0.00 | 0.00 | 88 | 1012.3 |
| 20260904010026 | 76 | 190 | 0.0 | 1.0 | 0.00 | 0.00 | 0.00 | 87 | 1012.4 |
| 20260904005525 | 76 | 190 | 0.0 | 1.0 | 0.00 | 0.00 | 0.00 | 87 | 1012.4 |
| 20260904005025 | 76 | 190 | 0.0 | 0.0 | 0.00 | 0.00 | 0.00 | 87 | 1012.4 |
| 20260904004528 | 76 | 190 | 0.0 | 0.0 | 0.00 | 0.00 | 0.00 | 87 | 1012.4 |
| 20260904004028 | 76 | 190 | 0.0 | 0.0 | 0.00 | 0.00 | 0.00 | 87 | 1012.3 |
| 20260904003525 | 76 | 190 | 0.0 | 0.0 | 0.00 | 0.00 | 0.00 | 87 | 1012.3 |
| 20260904003025 | 77 | 190 | 0.0 | 0.0 | 0.00 | 0.00 | 0.00 | 86 | 1012.4 |
| 20260904002525 | 77 | 190 | 0.0 | 0.0 | 0.00 | 0.00 | 0.00 | 86 | 1012.3 |
| 20260904002025 | 77 | 190 | 0.0 | 0.0 | 0.00 | 0.00 | 0.00 | 85 | 1012.2 |
| 20260904001524 | 77 | 190 | 0.0 | 0.0 | 0.00 | 0.00 | 0.00 | 85 | 1012.2 |
| 20260904001024 | 77 | 190 | 0.0 | 0.0 | 0.00 | 0.00 | 0.00 | 84 | 1012.2 |
| 20260904000525 | 78 | 190 | 0.0 | 0.0 | 0.00 | 0.00 | 0.00 | 84 | 1012.1 |
| 20260904000023 | 78 | 190 | 0.0 | 0.0 | 0.00 | 0.00 | 0.00 | 84 | 1012.0 |
| 20260903235522 | 78 | 190 | 0.0 | 0.0 | 0.00 | 0.00 | 0.00 | 83 | 1012.0 |
| 20260903235022 | 78 | 190 | 0.0 | 0.0 | 0.00 | 0.00 | 0.00 | 83 | 1012.1 |
| 20260903234522 | 79 | 190 | 0.0 | 0.0 | 0.00 | 0.00 | 0.00 | 83 | 1012.3 |
| 20260903234022 | 79 | 190 | 0.0 | 0.0 | 0.00 | 0.00 | 0.00 | 82 | 1012.1 |
| 20260903233522 | 79 | 190 | 0.0 | 0.0 | 0.00 | 0.00 | 0.00 | 82 | 1011.9 |
| 20260903233033 | 79 | 190 | 0.0 | 0.0 | 0.00 | 0.00 | 0.00 | 82 | 1011.7 |
| 20260903232523 | 80 | 190 | 0.0 | 0.0 | 0.00 | 0.00 | 0.00 | 82 | 1011.7 |
| 20260903232021 | 80 | 190 | 0.0 | 0.0 | 0.00 | 0.00 | 0.00 | 82 | 1011.6 |
| 20260903231535 | 80 | 190 | 0.0 | 0.0 | 0.00 | 0.00 | 0.00 | 81 | 1011.6 |
| 20260903231021 | 80 | 190 | 0.0 | 0.0 | 0.00 | 0.00 | 0.00 | 81 | 1011.9 |
| 20260903230526 | 80 | 190 | 0.0 | 0.0 | 0.00 | 0.00 | 0.00 | 81 | 1011.9 |
| 20260903230020 | 80 | 190 | 0.0 | 1.0 | 0.00 | 0.00 | 0.00 | 81 | 1012.0 |
| 20260903225520 | 80 | 190 | 0.0 | 1.0 | 0.00 | 0.00 | 0.00 | 80 | 1011.9 |
| 20260903225020 | 80 | 190 | 0.0 | 0.0 | 0.00 | 0.00 | 0.00 | 80 | 1012.0 |
| 20260903224520 | 80 | 190 | 0.0 | 0.0 | 0.00 | 0.00 | 0.00 | 80 | 1011.8 |
| 20260903224020 | 81 | 190 | 0.0 | 3.0 | 0.00 | 0.00 | 0.00 | 80 | 1011.8 |
| 20260903223523 | 81 | 190 | 0.0 | 3.0 | 0.00 | 0.00 | 0.00 | 79 | 1011.8 |
| 20260903223019 | 81 | 190 | 1.0 | 4.0 | 0.00 | 0.00 | 0.00 | 78 | 1011.8 |
| 20260903222519 | 81 | 190 | 0.0 | 3.0 | 0.00 | 0.00 | 0.00 | 78 | 1011.9 |
| 20260903222019 | 82 | 190 | 0.0 | 3.0 | 0.00 | 0.00 | 0.00 | 78 | 1011.8 |
| 20260903221520 | 82 | 190 | 0.0 | 5.0 | 0.00 | 0.00 | 0.00 | 78 | 1011.8 |
| 20260903221022 | 82 | 190 | 2.0 | 5.0 | 0.00 | 0.00 | 0.00 | 78 | 1011.7 |
| 20260903220519 | 83 | 167 | 1.0 | 2.0 | 0.00 | 0.00 | 0.00 | 77 | 1011.7 |
| 20260903220021 | 83 | 167 | 0.0 | 3.0 | 0.00 | 0.00 | 0.00 | 77 | 1011.8 |
| 20260903215518 | 83 | 167 | 0.0 | 3.0 | 0.00 | 0.00 | 0.00 | 77 | 1011.8 |
| 20260903215018 | 84 | 167 | 1.0 | 5.0 | 0.00 | 0.00 | 0.00 | 76 | 1011.9 |
| 20260903214518 | 84 | 167 | 2.0 | 4.0 | 0.00 | 0.00 | 0.00 | 74 | 1011.9 |
| 20260903214016 | 84 | 167 | 2.0 | 4.0 | 0.00 | 0.00 | 0.00 | 73 | 1011.8 |
| 20260903213515 | 85 | 167 | 1.0 | 6.0 | 0.00 | 0.00 | 0.00 | 72 | 1011.9 |
| 20260903213015 | 85 | 167 | 2.0 | 6.0 | 0.00 | 0.00 | 0.00 | 72 | 1011.9 |
| 20260903212516 | 85 | 162 | 3.0 | 5.0 | 0.00 | 0.00 | 0.00 | 70 | 1011.9 |